STARLINK-32848, 62808

Orbit data source: Space-Track

STARLINK-32848, 62808 is a payload satellite owned by SpaceX/Seattle (US) in LEO that was launched on Fri, 24 Jan 2025 UTC via an FALCON 9 launch vehicle from the Air Force Western Test Range (AFWTR). Payloads include a variety of satellites, spacecraft, and rockets equipped with specific instruments for various scientific and technological missions. These include communications satellites like Starlink; space stations such as the ISS; scientific satellites like the Hubble; Earth observation satellites from companies like Planet Labs, Umbra, and HawkEye 360; GPS; miniature CubeSats for education and research; and military/defense satellites.

Loading next visibility...
STARLINK-32848 details
Identifier
62808, 2025-018C
Orbit
LEO
Last TLE update9 hours ago
Origin
Flag of USSpaceX/Seattle (US)
ManufacturerSpaceX/Seattle
MissionOperational spacecraft
Bus & MotorSTARLINK V2M, Unknown motor
Mass730 kg wet, ~700 kg dry
Launch date (UTC)
2025-01-24 (3 weeks ago)
Launch vehicle
FALCON 9
Launch site
Air Force Western Test Range (AFWTR)
Object type
Payload
Rocket body
Debris
Shape & HBRUnknown
Radar Cross SectionLarge (>1 m²)

Expand to show TLE details & history

TLE from 9 hours ago
0 STARLINK-32848
1 62808U 25018C   25047.16668981 -.01597166  00000-0 -25347-1 0  9992
2 62808  53.1589 312.5434 0000740  76.6890 264.9331 15.55653514  4794
Epoch: 2025-02-16T04:00Z
Definitive object data (Epoch: 2025-02-16T04:00:01.999Z)
Latitude-14.78413°
Longitude94.79172°
Altitude404.278 km
Speed7.668 km/s
True Right ascension20h 04m 48s
True Declination-14° 41' 42"
Sunlit
Object was in daylight at TLE epoch
Visualization TLE readout
Latitude-15.97998°
Longitude-63.28784°
Altitude408.595 km
Speed7.666 km/s
Apparent Right ascension07h 02m 24s
Apparent Declination-36° 24' 19"
Sunlit
Object is in full shadow
Visualization observer readout
Local Sidereal Time15:25:27
Azimuth256.784° W
Elevation-47.869°
Doppler factor1
Orbital elements
Apogee altitude401.015 km
Perigee altitude400.011 km
Semi-major axis6,778.65 km
Eccentricity0.000074
Inclination53.1589°
RAAN312.5434°
Arg. of periapsis76.689°
True anomaly264.92465°
Mean anomaly264.9331°
Eccentric anomaly264.92888°
Mean motion3.88891 °/min
BSTAR-0.025347
Orbital period92.57 mins
Loading maneuver chart data...
Loading historical data...
Loading historical data...
Loading historical data...
Loading historical data...
Loading historical data...
Loading historical data...
Loading historical data...

STARLINK-32848 Visibility forecast

Observer location: undefined°, undefined

Span
Click to sort rows by Start time (UTC) header in descending order
Start Az.
Max El. time (UTC)
Max El. Az.
Max El.
End time (UTC)
End Az.
5 mins2025-02-16 19:39:53.916Z196.173° SSW2025-02-16 19:42:53.916Z127.397° SE26.907°2025-02-16 19:44:53.916Z76.728° E
4 mins2025-02-16 21:17:53.916Z291.062° WNW2025-02-16 21:18:53.916Z320.134° NNW24.481°2025-02-16 21:21:53.916Z29.651° NE
4 mins2025-02-17 02:09:53.916Z344.715° N2025-02-17 02:11:53.916Z42.228° NE24.037°2025-02-17 02:13:53.916Z86.009° E
4 mins2025-02-17 03:46:53.916Z265.802° W2025-02-17 03:47:53.916Z232.014° WSW27.594°2025-02-17 03:50:53.916Z162.963° S
|